| time (UTC) | temp F | wind direction | speed knots | gust knots | rain 1hr in | rain 24hr in | rain mn in | humidity % | barometer mb |
| 20260506112439 | 56 | 5 | 3.5 | 8.7 | 0.00 | 0.00 | 0.00 | 73 | 1012.5 |
| 20260506111940 | 56 | 344 | 2.6 | 7.8 | 0.00 | 0.00 | 0.00 | 73 | 1012.3 |
| 20260506111439 | 56 | 11 | 2.6 | 8.7 | 0.00 | 0.00 | 0.00 | 73 | 1012.1 |
| 20260506110939 | 56 | 55 | 2.6 | 8.7 | 0.00 | 0.00 | 0.00 | 73 | 1012.1 |
| 20260506110438 | 56 | 355 | 2.6 | 7.8 | 0.00 | 0.00 | 0.00 | 73 | 1012.1 |
| 20260506105938 | 56 | 82 | 2.6 | 7.0 | 0.00 | 0.00 | 0.00 | 73 | 1012.1 |
| 20260506105436 | 57 | 341 | 2.6 | 7.8 | 0.00 | 0.00 | 0.00 | 73 | 1011.8 |
| 20260506104936 | 57 | 350 | 2.6 | 7.8 | 0.00 | 0.00 | 0.00 | 73 | 1011.6 |
| 20260506104439 | 57 | 323 | 2.6 | 7.0 | 0.00 | 0.00 | 0.00 | 73 | 1011.7 |
| 20260506103933 | 57 | 350 | 3.5 | 11.3 | 0.00 | 0.00 | 0.00 | 73 | 1011.6 |
| 20260506103915 | 57 | 339 | 4.3 | 11.3 | 0.00 | 0.00 | 0.00 | 73 | 1011.6 |
| 20260506102931 | 57 | 336 | 3.5 | 8.7 | 0.00 | 0.00 | 0.00 | 73 | 1011.4 |
| 20260506102657 | 57 | 355 | 3.5 | 9.6 | 0.00 | 0.00 | 0.00 | 73 | 1011.3 |
| 20260506101930 | 57 | 355 | 2.6 | 9.6 | 0.00 | 0.00 | 0.00 | 73 | 1011.3 |
| 20260506101429 | 57 | 113 | 2.6 | 5.2 | 0.00 | 0.00 | 0.00 | 73 | 1011.0 |
| 20260506100923 | 57 | 0 | 2.6 | 7.0 | 0.00 | 0.00 | 0.00 | 73 | 1011.0 |
| 20260506100417 | 57 | 320 | 2.6 | 8.7 | 0.00 | 0.00 | 0.00 | 73 | 1011.0 |
| 20260506095911 | 57 | 337 | 2.6 | 8.7 | 0.00 | 0.00 | 0.00 | 73 | 1010.9 |
| 20260506095405 | 58 | 313 | 2.6 | 7.8 | 0.00 | 0.00 | 0.00 | 73 | 1010.7 |
| 20260506094901 | 58 | 355 | 2.6 | 7.8 | 0.00 | 0.00 | 0.00 | 73 | 1010.7 |
| 20260506094401 | 58 | 326 | 2.6 | 7.0 | 0.00 | 0.00 | 0.00 | 73 | 1010.6 |
| 20260506093902 | 58 | 325 | 3.5 | 8.7 | 0.00 | 0.00 | 0.00 | 73 | 1010.7 |
| 20260506093400 | 58 | 355 | 2.6 | 8.7 | 0.00 | 0.00 | 0.00 | 74 | 1010.8 |
| 20260506092901 | 58 | 348 | 1.7 | 5.2 | 0.00 | 0.00 | 0.00 | 74 | 1010.7 |
| 20260506092401 | 58 | 347 | 1.7 | 7.8 | 0.00 | 0.00 | 0.00 | 74 | 1010.5 |
| 20260506091901 | 58 | 344 | 1.7 | 7.8 | 0.00 | 0.00 | 0.00 | 74 | 1010.6 |
| 20260506091402 | 58 | 70 | 1.7 | 7.0 | 0.00 | 0.00 | 0.00 | 74 | 1010.5 |
| 20260506090900 | 58 | 335 | 2.6 | 7.0 | 0.00 | 0.00 | 0.00 | 74 | 1010.5 |
| 20260506090402 | 59 | 355 | 1.7 | 5.2 | 0.00 | 0.00 | 0.00 | 74 | 1010.5 |
| 20260506085901 | 59 | 311 | 1.7 | 4.3 | 0.00 | 0.00 | 0.00 | 74 | 1010.5 |
| 20260506085401 | 59 | 355 | 1.7 | 7.0 | 0.00 | 0.00 | 0.00 | 74 | 1010.4 |
| 20260506084901 | 59 | 351 | 2.6 | 7.0 | 0.00 | 0.00 | 0.00 | 74 | 1010.4 |
| 20260506084401 | 59 | 59 | 1.7 | 6.1 | 0.00 | 0.00 | 0.00 | 74 | 1010.4 |
| 20260506083901 | 59 | 355 | 1.7 | 6.1 | 0.00 | 0.00 | 0.00 | 74 | 1010.2 |
| 20260506083401 | 59 | 355 | 2.6 | 6.1 | 0.00 | 0.00 | 0.00 | 74 | 1010.2 |
| 20260506082901 | 59 | 340 | 1.7 | 6.1 | 0.00 | 0.00 | 0.00 | 74 | 1010.1 |
| 20260506082358 | 59 | 14 | 1.7 | 7.8 | 0.00 | 0.00 | 0.00 | 74 | 1010.2 |
| 20260506081853 | 60 | 348 | 2.6 | 7.8 | 0.00 | 0.00 | 0.00 | 74 | 1010.2 |
| 20260506081614 | 60 | 343 | 1.7 | 5.2 | 0.00 | 0.00 | 0.00 | 74 | 1010.2 |
| 20260506080840 | 60 | 342 | 1.7 | 5.2 | 0.00 | 0.00 | 0.00 | 74 | 1010.2 |
| 20260506080340 | 60 | 355 | 1.7 | 4.3 | 0.00 | 0.00 | 0.00 | 74 | 1010.1 |
| 20260506080109 | 60 | 355 | 1.7 | 7.0 | 0.00 | 0.00 | 0.00 | 74 | 1010.0 |
| 20260506073333 | 60 | 5 | 0.9 | 4.3 | 0.00 | 0.00 | 0.00 | 75 | 1009.6 |
| 20260506072831 | 60 | 101 | 0.9 | 4.3 | 0.00 | 0.00 | 0.00 | 75 | 1009.6 |
| 20260506072331 | 60 | 30 | 0.9 | 4.3 | 0.00 | 0.00 | 0.00 | 75 | 1009.6 |
| 20260506072320 | 60 | 355 | 1.7 | 4.3 | 0.00 | 0.00 | 0.00 | 75 | 1009.9 |
| 20260506071330 | 60 | 355 | 1.7 | 4.3 | 0.00 | 0.00 | 0.00 | 75 | 1010.0 |
| 20260506070833 | 60 | 64 | 1.7 | 4.3 | 0.00 | 0.00 | 0.00 | 75 | 1009.9 |
| 20260506070332 | 60 | 5 | 1.7 | 5.2 | 0.00 | 0.00 | 0.00 | 75 | 1009.9 |
| 20260506062323 | 61 | 34 | 1.7 | 5.2 | 0.00 | 0.00 | 0.00 | 75 | 1009.9 |
| 20260506062045 | 61 | 88 | 1.7 | 5.2 | 0.00 | 0.00 | 0.00 | 76 | 1009.9 |
| 20260506061540 | 61 | 5 | 1.7 | 7.0 | 0.00 | 0.00 | 0.00 | 76 | 1009.9 |
| 20260506061523 | 61 | 0 | 1.7 | 7.0 | 0.00 | 0.00 | 0.00 | 76 | 1009.8 |
| 20260506060323 | 61 | 30 | 1.7 | 7.0 | 0.00 | 0.00 | 0.00 | 76 | 1010.0 |
| 20260506051319 | 62 | 345 | 2.6 | 8.7 | 0.00 | 0.00 | 0.00 | 76 | 1009.8 |
| 20260506050819 | 62 | 0 | 3.5 | 8.7 | 0.00 | 0.00 | 0.00 | 76 | 1009.9 |
| 20260506050319 | 62 | 32 | 3.5 | 7.8 | 0.00 | 0.00 | 0.00 | 76 | 1009.8 |
| 20260506044817 | 63 | 350 | 3.5 | 8.7 | 0.00 | 0.00 | 0.00 | 75 | 1009.5 |
| 20260506044317 | 63 | 5 | 3.5 | 8.7 | 0.00 | 0.00 | 0.00 | 75 | 1009.5 |
| 20260506043817 | 63 | 355 | 2.6 | 8.7 | 0.00 | 0.00 | 0.00 | 75 | 1009.8 |
| 20260506043317 | 64 | 32 | 2.6 | 8.7 | 0.00 | 0.00 | 0.00 | 75 | 1009.6 |
| 20260506042817 | 64 | 355 | 3.5 | 8.7 | 0.00 | 0.00 | 0.00 | 75 | 1009.6 |
| 20260506042317 | 64 | 349 | 2.6 | 8.7 | 0.00 | 0.00 | 0.00 | 75 | 1009.8 |
| 20260506042048 | 64 | 336 | 2.6 | 8.7 | 0.00 | 0.00 | 0.00 | 74 | 1009.6 |
| 20260506041317 | 64 | 355 | 2.6 | 8.7 | 0.00 | 0.00 | 0.00 | 75 | 1009.6 |
| 20260506040817 | 64 | 11 | 4.3 | 10.4 | 0.00 | 0.00 | 0.00 | 74 | 1009.5 |
| 20260506040313 | 65 | 31 | 3.5 | 10.4 | 0.00 | 0.00 | 0.00 | 74 | 1009.5 |
| 20260506035813 | 65 | 344 | 3.5 | 10.4 | 0.00 | 0.00 | 0.00 | 74 | 1009.5 |
| 20260506035313 | 65 | 13 | 3.5 | 8.7 | 0.00 | 0.00 | 0.00 | 74 | 1009.3 |
| 20260506034812 | 65 | 331 | 3.5 | 9.6 | 0.00 | 0.00 | 0.00 | 73 | 1009.0 |
| 20260506034312 | 66 | 341 | 3.5 | 9.6 | 0.00 | 0.00 | 0.00 | 73 | 1009.0 |
| 20260506033812 | 66 | 60 | 2.6 | 7.0 | 0.00 | 0.00 | 0.00 | 73 | 1008.7 |
| 20260506033313 | 67 | 89 | 2.6 | 7.0 | 0.00 | 0.00 | 0.00 | 73 | 1008.6 |
| 20260506033044 | 67 | 311 | 2.6 | 7.0 | 0.00 | 0.00 | 0.00 | 73 | 1008.5 |
| 20260506032313 | 67 | 355 | 3.5 | 11.3 | 0.00 | 0.00 | 0.00 | 72 | 1008.5 |
| 20260506031808 | 67 | 307 | 2.6 | 11.3 | 0.00 | 0.00 | 0.00 | 72 | 1008.3 |
| 20260506031308 | 68 | 350 | 2.6 | 9.6 | 0.00 | 0.00 | 0.00 | 72 | 1008.3 |
| 20260506031039 | 68 | 346 | 2.6 | 9.6 | 0.00 | 0.00 | 0.00 | 72 | 1008.2 |
| 20260506030308 | 68 | 5 | 2.6 | 8.7 | 0.00 | 0.00 | 0.00 | 72 | 1008.3 |
| 20260506030039 | 68 | 351 | 2.6 | 8.7 | 0.00 | 0.00 | 0.00 | 71 | 1008.2 |
| 20260506025312 | 68 | 37 | 2.6 | 8.7 | 0.00 | 0.00 | 0.00 | 71 | 1008.1 |
| 20260506024812 | 68 | 5 | 2.6 | 8.7 | 0.00 | 0.00 | 0.00 | 71 | 1008.1 |
| 20260506024311 | 68 | 338 | 2.6 | 7.8 | 0.00 | 0.00 | 0.00 | 70 | 1007.9 |
| 20260506023815 | 69 | 346 | 2.6 | 8.7 | 0.00 | 0.00 | 0.00 | 70 | 1007.7 |
| 20260506023303 | 69 | 78 | 2.6 | 8.7 | 0.00 | 0.00 | 0.00 | 70 | 1007.7 |
| 20260506022802 | 69 | 40 | 2.6 | 9.6 | 0.00 | 0.00 | 0.00 | 69 | 1007.8 |
| 20260506022306 | 69 | 344 | 2.6 | 9.6 | 0.00 | 0.00 | 0.00 | 69 | 1007.5 |
| 20260506022254 | 69 | 307 | 3.5 | 10.4 | 0.00 | 0.00 | 0.00 | 69 | 1007.4 |
| 20260506021303 | 69 | 355 | 4.3 | 10.4 | 0.00 | 0.00 | 0.00 | 68 | 1007.4 |
| 20260506020803 | 69 | 340 | 3.5 | 10.4 | 0.00 | 0.00 | 0.00 | 68 | 1007.3 |
| 20260506020302 | 70 | 355 | 3.5 | 9.6 | 0.00 | 0.00 | 0.00 | 68 | 1007.2 |
| 20260506015803 | 70 | 5 | 3.5 | 8.7 | 0.00 | 0.00 | 0.00 | 69 | 1007.1 |
| 20260506015302 | 70 | 84 | 2.6 | 8.7 | 0.00 | 0.00 | 0.00 | 68 | 1006.7 |
| 20260506014803 | 71 | 350 | 2.6 | 8.7 | 0.00 | 0.00 | 0.00 | 69 | 1006.7 |
| 20260506014301 | 71 | 10 | 2.6 | 7.8 | 0.00 | 0.00 | 0.00 | 69 | 1006.4 |
| 20260506013803 | 71 | 346 | 2.6 | 7.8 | 0.00 | 0.00 | 0.00 | 68 | 1006.3 |
| 20260506013303 | 71 | 338 | 2.6 | 7.8 | 0.00 | 0.00 | 0.00 | 68 | 1006.4 |
| 20260506012800 | 72 | 11 | 2.6 | 7.8 | 0.00 | 0.00 | 0.00 | 68 | 1006.4 |
| 20260506012254 | 72 | 23 | 2.6 | 7.8 | 0.00 | 0.00 | 0.00 | 68 | 1006.3 |
| 20260506012241 | 72 | 315 | 1.7 | 7.0 | 0.00 | 0.00 | 0.00 | 68 | 1006.1 |
| 20260506011244 | 73 | 76 | 1.7 | 7.0 | 0.00 | 0.00 | 0.00 | 67 | 1006.1 |
| 20260506011018 | 73 | 5 | 1.7 | 5.2 | 0.00 | 0.00 | 0.00 | 67 | 1006.1 |
| 20260506010245 | 73 | 355 | 2.6 | 7.8 | 0.00 | 0.00 | 0.00 | 67 | 1006.3 |
| 20260506005743 | 73 | 31 | 1.7 | 7.8 | 0.00 | 0.00 | 0.00 | 67 | 1006.1 |
| 20260506005243 | 74 | 351 | 2.6 | 7.0 | 0.00 | 0.00 | 0.00 | 67 | 1005.9 |
| 20260506004741 | 74 | 355 | 2.6 | 7.0 | 0.00 | 0.00 | 0.00 | 66 | 1005.8 |
| 20260506004239 | 74 | 339 | 1.7 | 9.6 | 0.00 | 0.00 | 0.00 | 66 | 1005.8 |
| 20260506003739 | 74 | 0 | 2.6 | 9.6 | 0.00 | 0.00 | 0.00 | 66 | 1005.5 |
| 20260506003240 | 75 | 348 | 3.5 | 10.4 | 0.00 | 0.00 | 0.00 | 66 | 1005.3 |
| 20260506002736 | 76 | 331 | 3.5 | 10.4 | 0.00 | 0.00 | 0.00 | 65 | 1005.4 |
| 20260506002234 | 76 | 0 | 2.6 | 8.7 | 0.00 | 0.00 | 0.00 | 65 | 1005.3 |
| 20260506001733 | 76 | 348 | 2.6 | 8.7 | 0.00 | 0.00 | 0.00 | 64 | 1005.1 |
| 20260506001232 | 77 | 355 | 2.6 | 8.7 | 0.00 | 0.00 | 0.00 | 63 | 1005.2 |
| 20260506001004 | 77 | 325 | 3.5 | 8.7 | 0.00 | 0.00 | 0.00 | 63 | 1005.1 |
| 20260506000230 | 78 | 0 | 3.5 | 10.4 | 0.00 | 0.00 | 0.00 | 63 | 1005.0 |
| 20260505235730 | 78 | 355 | 3.5 | 10.4 | 0.00 | 0.00 | 0.00 | 62 | 1005.0 |
| 20260505235230 | 78 | 0 | 3.5 | 10.4 | 0.00 | 0.00 | 0.00 | 61 | 1005.0 |
| 20260505234954 | 79 | 324 | 3.5 | 10.4 | 0.00 | 0.00 | 0.00 | 62 | 1005.0 |
| 20260505234232 | 80 | 9 | 3.5 | 9.6 | 0.00 | 0.00 | 0.00 | 61 | 1004.8 |
| 20260505233952 | 80 | 339 | 3.5 | 10.4 | 0.00 | 0.00 | 0.00 | 60 | 1004.7 |
| 20260505233216 | 80 | 331 | 3.5 | 10.4 | 0.00 | 0.00 | 0.00 | 59 | 1004.7 |
| 20260505232943 | 81 | 340 | 3.5 | 10.4 | 0.00 | 0.00 | 0.00 | 58 | 1004.6 |
| 20260505232209 | 81 | 337 | 4.3 | 10.4 | 0.00 | 0.00 | 0.00 | 58 | 1004.7 |
| 20260505231708 | 82 | 315 | 3.5 | 10.4 | 0.00 | 0.00 | 0.00 | 58 | 1004.6 |
| 20260505231209 | 82 | 355 | 3.5 | 12.2 | 0.00 | 0.00 | 0.00 | 57 | 1004.4 |
| 20260505230709 | 84 | 344 | 3.5 | 12.2 | 0.00 | 0.00 | 0.00 | 56 | 1004.4 |
| 20260505230207 | 84 | 355 | 3.5 | 9.6 | 0.00 | 0.00 | 0.00 | 57 | 1004.4 |
| 20260505225706 | 85 | 350 | 3.5 | 8.7 | 0.00 | 0.00 | 0.00 | 56 | 1004.2 |
| 20260505225207 | 85 | 339 | 2.6 | 7.8 | 0.00 | 0.00 | 0.00 | 56 | 1004.0 |
| 20260505224706 | 86 | 351 | 2.6 | 7.0 | 0.00 | 0.00 | 0.00 | 53 | 1003.9 |
| 20260505224205 | 87 | 5 | 3.5 | 13.9 | 0.00 | 0.00 | 0.00 | 52 | 1003.7 |
| 20260505223705 | 87 | 338 | 4.3 | 13.9 | 0.00 | 0.00 | 0.00 | 51 | 1003.7 |
| 20260505223436 | 87 | 333 | 3.5 | 9.6 | 0.00 | 0.00 | 0.00 | 50 | 1003.8 |
| 20260505222705 | 87 | 315 | 2.6 | 8.7 | 0.00 | 0.00 | 0.00 | 50 | 1003.8 |
| 20260505222208 | 87 | 355 | 2.6 | 8.7 | 0.00 | 0.00 | 0.00 | 49 | 1003.7 |
| 20260505221703 | 89 | 355 | 3.5 | 8.7 | 0.00 | 0.00 | 0.00 | 49 | 1003.5 |
| 20260505221425 | 88 | 340 | 4.3 | 9.6 | 0.00 | 0.00 | 0.00 | 49 | 1003.6 |
| 20260505220702 | 88 | 22 | 3.5 | 10.4 | 0.00 | 0.00 | 0.00 | 49 | 1003.4 |
| 20260505220208 | 89 | 341 | 3.5 | 10.4 | 0.00 | 0.00 | 0.00 | 50 | 1003.4 |
| 20260505215927 | 90 | 16 | 4.3 | 10.4 | 0.00 | 0.00 | 0.00 | 48 | 1003.4 |
| 20260505215159 | 92 | 259 | 3.5 | 10.4 | 0.00 | 0.00 | 0.00 | 46 | 1003.3 |
| 20260505214656 | 92 | 263 | 3.5 | 7.0 | 0.00 | 0.00 | 0.00 | 46 | 1003.5 |
| 20260505214142 | 93 | 343 | 4.3 | 8.7 | 0.00 | 0.00 | 0.00 | 45 | 1003.5 |
| 20260505213906 | 92 | 257 | 5.2 | 12.2 | 0.00 | 0.00 | 0.00 | 45 | 1003.4 |
| 20260505213141 | 93 | 233 | 4.3 | 12.2 | 0.00 | 0.00 | 0.00 | 45 | 1003.3 |
| 20260505212913 | 93 | 256 | 3.5 | 7.8 | 0.00 | 0.00 | 0.00 | 48 | 1003.4 |
| 20260505212144 | 92 | 294 | 5.2 | 9.6 | 0.00 | 0.00 | 0.00 | 46 | 1003.4 |
| 20260505211642 | 92 | 214 | 5.2 | 9.6 | 0.00 | 0.00 | 0.00 | 47 | 1003.5 |
| 20260505211141 | 92 | 225 | 4.3 | 8.7 | 0.00 | 0.00 | 0.00 | 49 | 1003.6 |
| 20260505210639 | 93 | 281 | 4.3 | 8.7 | 0.00 | 0.00 | 0.00 | 49 | 1003.7 |
| 20260505210629 | 92 | 253 | 5.2 | 12.2 | 0.00 | 0.00 | 0.00 | 48 | 1003.7 |
| 20260505205637 | 92 | 240 | 6.1 | 12.2 | 0.00 | 0.00 | 0.00 | 48 | 1003.7 |
| 20260505205358 | 92 | 212 | 5.2 | 10.4 | 0.00 | 0.00 | 0.00 | 48 | 1003.8 |
| 20260505204637 | 92 | 285 | 4.3 | 9.6 | 0.00 | 0.00 | 0.00 | 49 | 1003.9 |
| 20260505204136 | 92 | 308 | 5.2 | 10.4 | 0.00 | 0.00 | 0.00 | 50 | 1003.9 |
| 20260505203636 | 91 | 241 | 4.3 | 10.4 | 0.00 | 0.00 | 0.00 | 52 | 1004.0 |
| 20260505203134 | 92 | 244 | 5.2 | 12.2 | 0.00 | 0.00 | 0.00 | 53 | 1004.0 |
| 20260505202633 | 91 | 228 | 6.1 | 12.2 | 0.00 | 0.00 | 0.00 | 52 | 1004.1 |
| 20260505202132 | 91 | 241 | 5.2 | 11.3 | 0.00 | 0.00 | 0.00 | 51 | 1004.2 |
| 20260505201633 | 91 | 229 | 5.2 | 12.2 | 0.00 | 0.00 | 0.00 | 51 | 1004.4 |
| 20260505201130 | 91 | 235 | 6.1 | 12.2 | 0.00 | 0.00 | 0.00 | 52 | 1004.2 |
| 20260505200628 | 91 | 297 | 6.1 | 12.2 | 0.00 | 0.00 | 0.00 | 52 | 1004.2 |
| 20260505200122 | 92 | 227 | 5.2 | 11.3 | 0.00 | 0.00 | 0.00 | 56 | 1004.5 |
| 20260505195621 | 91 | 222 | 5.2 | 11.3 | 0.00 | 0.00 | 0.00 | 54 | 1004.5 |
| 20260505195120 | 91 | 232 | 4.3 | 8.7 | 0.00 | 0.00 | 0.00 | 55 | 1004.4 |
| 20260505194842 | 91 | 248 | 4.3 | 8.7 | 0.00 | 0.00 | 0.00 | 58 | 1004.5 |
| 20260505194120 | 90 | 231 | 4.3 | 9.6 | 0.00 | 0.00 | 0.00 | 57 | 1004.5 |
| 20260505193620 | 89 | 244 | 6.1 | 12.2 | 0.00 | 0.00 | 0.00 | 57 | 1004.5 |
| 20260505193120 | 89 | 242 | 7.0 | 12.2 | 0.00 | 0.00 | 0.00 | 59 | 1004.5 |
| 20260505192620 | 89 | 237 | 7.0 | 13.0 | 0.00 | 0.00 | 0.00 | 59 | 1004.8 |
| 20260505192120 | 89 | 227 | 7.8 | 15.6 | 0.00 | 0.00 | 0.00 | 57 | 1004.6 |
| 20260505191620 | 88 | 234 | 8.7 | 15.6 | 0.00 | 0.00 | 0.00 | 61 | 1004.6 |
| 20260505191121 | 87 | 222 | 7.8 | 14.8 | 0.00 | 0.00 | 0.00 | 59 | 1004.6 |
| 20260505190620 | 88 | 181 | 6.1 | 13.0 | 0.00 | 0.00 | 0.00 | 59 | 1004.5 |
| 20260505190121 | 88 | 248 | 5.2 | 10.4 | 0.00 | 0.00 | 0.00 | 60 | 1004.6 |
| 20260505185619 | 87 | 234 | 6.1 | 10.4 | 0.00 | 0.00 | 0.00 | 62 | 1004.5 |
| 20260505185345 | 87 | 103 | 7.0 | 11.3 | 0.00 | 0.00 | 0.00 | 63 | 1004.8 |
| 20260505184620 | 86 | 217 | 7.0 | 12.2 | 0.00 | 0.00 | 0.00 | 62 | 1004.7 |
| 20260505184120 | 86 | 253 | 7.0 | 13.0 | 0.00 | 0.00 | 0.00 | 63 | 1004.8 |
| 20260505183843 | 85 | 237 | 6.1 | 13.9 | 0.00 | 0.00 | 0.00 | 64 | 1004.8 |
| 20260505183344 | 85 | 217 | 6.1 | 13.9 | 0.00 | 0.00 | 0.00 | 63 | 1004.8 |
| 20260505182616 | 85 | 243 | 7.0 | 11.3 | 0.00 | 0.00 | 0.00 | 65 | 1004.9 |
| 20260505182117 | 85 | 243 | 7.0 | 11.3 | 0.00 | 0.00 | 0.00 | 66 | 1004.8 |
| 20260505181617 | 85 | 244 | 7.0 | 12.2 | 0.00 | 0.00 | 0.00 | 65 | 1004.9 |
| 20260505181118 | 84 | 212 | 6.1 | 12.2 | 0.00 | 0.00 | 0.00 | 64 | 1004.9 |
| 20260505180620 | 84 | 239 | 7.0 | 13.9 | 0.00 | 0.00 | 0.00 | 66 | 1004.9 |
| 20260505180117 | 84 | 207 | 7.0 | 14.8 | 0.00 | 0.00 | 0.00 | 65 | 1005.0 |
| 20260505175616 | 83 | 225 | 7.8 | 14.8 | 0.00 | 0.00 | 0.00 | 66 | 1005.0 |
| 20260505175114 | 83 | 238 | 6.1 | 13.9 | 0.00 | 0.00 | 0.00 | 68 | 1005.0 |
| 20260505174614 | 83 | 223 | 5.2 | 13.0 | 0.00 | 0.00 | 0.00 | 66 | 1004.9 |
| 20260505174114 | 83 | 211 | 5.2 | 13.0 | 0.00 | 0.00 | 0.00 | 65 | 1005.0 |
| 20260505173610 | 83 | 234 | 7.0 | 14.8 | 0.00 | 0.00 | 0.00 | 67 | 1005.0 |
| 20260505173110 | 83 | 231 | 7.8 | 14.8 | 0.00 | 0.00 | 0.00 | 66 | 1005.0 |
| 20260505172610 | 83 | 246 | 7.8 | 13.9 | 0.00 | 0.00 | 0.00 | 66 | 1005.1 |
| 20260505172110 | 82 | 246 | 7.0 | 13.9 | 0.00 | 0.00 | 0.00 | 67 | 1005.1 |
| 20260505171609 | 82 | 209 | 6.1 | 12.2 | 0.00 | 0.00 | 0.00 | 67 | 1005.1 |
| 20260505171110 | 82 | 223 | 6.1 | 11.3 | 0.00 | 0.00 | 0.00 | 69 | 1005.4 |
| 20260505170610 | 82 | 243 | 6.1 | 11.3 | 0.00 | 0.00 | 0.00 | 67 | 1005.0 |
| 20260505170110 | 82 | 205 | 6.1 | 13.9 | 0.00 | 0.00 | 0.00 | 66 | 1005.1 |
| 20260505165610 | 82 | 226 | 7.0 | 14.8 | 0.00 | 0.00 | 0.00 | 66 | 1005.0 |
| 20260505165106 | 83 | 235 | 6.1 | 14.8 | 0.00 | 0.00 | 0.00 | 66 | 1004.9 |
| 20260505164606 | 83 | 233 | 6.1 | 13.0 | 0.00 | 0.00 | 0.00 | 68 | 1005.0 |
| 20260505164106 | 82 | 225 | 6.1 | 13.0 | 0.00 | 0.00 | 0.00 | 70 | 1005.0 |
| 20260505163606 | 80 | 213 | 6.1 | 13.0 | 0.00 | 0.00 | 0.00 | 71 | 1005.0 |
| 20260505163107 | 80 | 188 | 7.0 | 13.0 | 0.00 | 0.00 | 0.00 | 70 | 1005.0 |
| 20260505162606 | 80 | 249 | 7.0 | 13.0 | 0.00 | 0.00 | 0.00 | 71 | 1004.9 |
| 20260505162106 | 81 | 224 | 7.8 | 14.8 | 0.00 | 0.00 | 0.00 | 70 | 1004.9 |
| 20260505161606 | 80 | 224 | 8.7 | 14.8 | 0.00 | 0.00 | 0.00 | 71 | 1005.0 |
| 20260505161106 | 80 | 244 | 7.8 | 14.8 | 0.00 | 0.00 | 0.00 | 70 | 1005.0 |
| 20260505160602 | 80 | 228 | 7.0 | 15.6 | 0.00 | 0.00 | 0.00 | 71 | 1004.8 |
| 20260505153101 | 77 | 208 | 6.1 | 12.2 | 0.00 | 0.00 | 0.00 | 75 | 1004.5 |
| 20260505152600 | 77 | 217 | 6.1 | 12.2 | 0.00 | 0.00 | 0.00 | 75 | 1004.7 |
| 20260505152059 | 77 | 236 | 4.3 | 12.2 | 0.00 | 0.00 | 0.00 | 74 | 1004.8 |
| 20260505151823 | 77 | 219 | 6.1 | 15.6 | 0.00 | 0.00 | 0.00 | 75 | 1004.8 |
| 20260505151056 | 76 | 225 | 7.0 | 15.6 | 0.00 | 0.00 | 0.00 | 76 | 1004.9 |
| 20260505150556 | 76 | 200 | 7.0 | 13.9 | 0.00 | 0.00 | 0.00 | 77 | 1004.9 |
| 20260505150319 | 76 | 238 | 7.0 | 15.6 | 0.00 | 0.00 | 0.00 | 76 | 1004.8 |
| 20260505140538 | 74 | 180 | 7.0 | 15.6 | 0.00 | 0.00 | 0.00 | 80 | 1004.9 |
| 20260505125014 | 71 | 211 | 5.2 | 9.6 | 0.00 | 0.00 | 0.00 | 85 | 1004.1 |
| 20260505124511 | 70 | 217 | 5.2 | 11.3 | 0.00 | 0.00 | 0.00 | 85 | 1004.0 |
| 20260505124010 | 70 | 215 | 6.1 | 12.2 | 0.00 | 0.00 | 0.00 | 85 | 1004.0 |
| 20260505123726 | 70 | 205 | 6.1 | 12.2 | 0.00 | 0.00 | 0.00 | 85 | 1003.9 |
| 20260505123228 | 70 | 196 | 6.1 | 12.2 | 0.00 | 0.00 | 0.00 | 85 | 1003.9 |
| 20260505122505 | 70 | 219 | 6.1 | 12.2 | 0.00 | 0.00 | 0.00 | 85 | 1003.8 |
| 20260505122004 | 70 | 206 | 6.1 | 12.2 | 0.00 | 0.00 | 0.00 | 85 | 1003.8 |
| 20260505121503 | 70 | 209 | 6.1 | 13.0 | 0.00 | 0.00 | 0.00 | 85 | 1003.7 |
| 20260505121003 | 70 | 216 | 5.2 | 13.0 | 0.00 | 0.00 | 0.00 | 85 | 1003.6 |
| 20260505120503 | 70 | 227 | 6.1 | 10.4 | 0.00 | 0.00 | 0.00 | 85 | 1003.4 |
| 20260505120003 | 70 | 221 | 6.1 | 10.4 | 0.00 | 0.00 | 0.00 | 85 | 1003.5 |
| 20260505115501 | 70 | 146 | 6.1 | 12.2 | 0.00 | 0.00 | 0.00 | 85 | 1003.6 |
| 20260505115000 | 70 | 211 | 6.1 | 12.2 | 0.00 | 0.00 | 0.00 | 85 | 1003.7 |
| 20260505114504 | 70 | 192 | 6.1 | 11.3 | 0.00 | 0.00 | 0.00 | 85 | 1003.6 |
| 20260505114004 | 70 | 210 | 5.2 | 11.3 | 0.00 | 0.00 | 0.00 | 85 | 1003.6 |
| 20260505113507 | 70 | 210 | 6.1 | 12.2 | 0.00 | 0.00 | 0.00 | 85 | 1003.5 |
| 20260505113005 | 70 | 128 | 5.2 | 12.2 | 0.00 | 0.00 | 0.00 | 85 | 1003.5 |